Home > Weather > Terre Haute > Past weeks

Flag for USA Past Weather in Terre Haute, Indiana, USA — Yesterday and Last 2 Weeks

Now
71 °F

Passing clouds.


Feels Like: 72 °F
Forecast: 69 / 87 °F
Wind: 6 mph from South

Location: Terre Haute International Airport - Hulman Field

Current Time: Aug 24, 2016 at 4:49:40 AM

Latest Report: Aug 24, 2016 at 3:53 AM


Visibility: 10 mi

Pressure: 30.12 "Hg

Humidity: 78%

Dew Point: 64 °F

Location of Terre HauteLocation

Past Weather in Terre Haute — Graph

°F

Terre Haute Temperature Yesterday

Maximum temperature yesterday: 82 °F (at 2:53 PM)
Minimum temperature yesterday: 58 °F (at 4:53 AM)
Average temperature yesterday: 70 °F

High & Low Weather Summary for the Past Weeks

 TemperatureHumidityPressure
High92 °F (Aug 11, 2:53 PM)94% (Aug 10, 7:53 AM)30.27 "Hg (Aug 10, 7:53 AM)
Low56 °F (Aug 22, 5:53 AM)42% (Aug 22, 3:53 PM)29.67 "Hg (Aug 20, 2:53 PM)
Average75 °F81%30.01 "Hg
* Reported Aug 9 3:53 AM — Aug 24 3:53 AM, Terre Haute, Weather by CustomWeather, © 2016

Note: Actual official high and low records may vary slightly from our data, if they occured in-between our weather recording intervals... More about our weather records

Advertising

Terre Haute Weather History for the Previous 24 Hours

Scroll right to see more
 ConditionsComfort  
Time TempWeatherWind HumidityBarometerVisibility
3:53 AM
Wed, Aug 24
71 °FPassing clouds.6 mph78%30.12 "Hg10 mi
2:53 AM71 °FPassing clouds.6 mph78%30.12 "Hg10 mi
1:53 AM71 °FClear.6 mph78%30.13 "Hg10 mi
12:53 AM71 °FClear.7 mph78%30.14 "Hg10 mi
11:53 PM
Tue, Aug 23
71 °FClear.5 mph81%30.14 "Hg10 mi
10:53 PM71 °FClear.5 mph81%30.15 "Hg10 mi
9:53 PM72 °FClear.5 mph78%30.16 "Hg10 mi
8:53 PM73 °FPartly sunny.3 mph76%30.16 "Hg10 mi
7:53 PM76 °FScattered clouds.5 mph69%30.17 "Hg10 mi
6:53 PM78 °FPassing clouds.6 mph60%30.18 "Hg10 mi
5:53 PM80 °FSunny.9 mph52%30.18 "Hg10 mi
4:53 PM80 °FPassing clouds.9 mph52%30.19 "Hg10 mi
3:53 PM81 °FPassing clouds.10 mph49%30.19 "Hg10 mi
2:53 PM82 °FScattered clouds.10 mph48%30.21 "Hg10 mi
1:53 PM81 °FScattered clouds.10 mph51%30.22 "Hg10 mi
12:53 PM80 °FPartly sunny.12 mph51%30.24 "Hg10 mi
11:53 AM78 °FSunny.8 mph58%30.27 "Hg10 mi
10:53 AM75 °FSunny.7 mph69%30.27 "Hg10 mi
9:53 AM71 °FSunny.7 mph73%30.26 "Hg10 mi
8:53 AM65 °FSunny.3 mph85%30.25 "Hg10 mi
7:53 AM60 °FClear.No wind90%30.23 "Hg10 mi
6:53 AM58 °FClear.No wind93%30.22 "Hg10 mi
5:53 AM58 °FClear.No wind93%30.21 "Hg10 mi
4:53 AM58 °FClear.No wind93%30.21 "Hg10 mi
Weather by CustomWeather, © 2016

See weather overviewHow to use our weather pages